Danville, IL

8:45 PM CST on December 10, 2016 (GMT -0600)
Vermilion County

Weather History for KDNV - October, 2012

Change the Weather History Date:

Wednesday, October 24, 2012

  Actual Average (KCMI) Record (KCMI)
Temperature  
Mean Temperature 68 °F -  
Max Temperature 77 °F 60 °F 79 °F (2012)
Min Temperature 59 °F 39 °F 23 °F (1999)
Cooling Degree Days 3    
Growing Degree Days 18 (Base 50)    
Moisture  
Dew Point 58 °F    
Average Humidity 73    
Maximum Humidity 85    
Minimum Humidity 59    
Precipitation  
Precipitation 0.00 in - - ()
Sea Level Pressure  
Sea Level Pressure 29.95 in    
Wind  
Wind Speed 9 mph (South)    
Max Wind Speed 16 mph    
Max Gust Speed 18 mph    
Visibility 7 miles    
Events Rain    
Averages and records for this station are not official NWS values.
T = Trace of Precipitation, MM = Missing Value Source: NWS Daily Summary

Daily Weather History Graph

Daily Weather History Graph

Search for Another Location

Airport or City:

Trip Planner

Search our weather history database for the weather conditions in past years. The results will help you decide how hot, cold, wet, or windy it might be!

Date:

Astronomy

Oct. 24, 2012 Rise Set
Actual Time 7:11 AM CDT 5:57 PM CDT
Civil Twilight 6:43 AM CDT 6:24 PM CDT
Nautical Twilight 6:11 AM CDT 6:56 PM CDT
Astronomical Twilight 5:40 AM CDT 7:27 PM CDT
Moon 3:13 PM CDT (10/24) 2:05 AM CDT (10/24)
Length of Visible Light 11h 41m
Length of Day
10h 45m
Waxing Gibbous, 76% of the Moon is Illuminated
Oct 24
Waxing Gibbous
Oct 29
Full
Nov 6
Last Quarter
Nov 13
New
Nov 20
First Quarter

Hourly Weather History & Observations

Time (CDT) Temp. Dew Point Humidity Pressure Visibility Wind Dir Wind Speed Gust Speed Precip Events Conditions
12:15 AM 63.1 °F 56.5 °F 79% 29.94 in 7.0 mi SSW 9.2 mph - N/A Rain Rain
12:35 AM 63.5 °F 56.7 °F 78% 29.94 in 7.0 mi SSW 9.2 mph - N/A Rain Rain
12:55 AM 62.8 °F 56.5 °F 80% 29.95 in 7.0 mi SSW 9.2 mph - N/A Rain Heavy Rain
1:15 AM 62.8 °F 56.3 °F 79% 29.95 in 7.0 mi South 6.9 mph - N/A Rain Heavy Rain
1:35 AM 62.6 °F 55.9 °F 79% 29.95 in 7.0 mi SSW 6.9 mph - N/A Rain Heavy Rain
1:55 AM 62.6 °F 55.9 °F 79% 29.96 in 7.0 mi SSW 6.9 mph - N/A Rain Rain
2:15 AM 62.6 °F 55.4 °F 77% 29.96 in 7.0 mi SSW 5.8 mph - N/A Rain Rain
2:35 AM 61.7 °F 56.1 °F 82% 29.96 in 7.0 mi South 4.6 mph - N/A Rain Rain
2:55 AM 61.7 °F 56.3 °F 82% 29.96 in 7.0 mi South 5.8 mph - N/A Rain Rain
3:15 AM 62.6 °F 56.3 °F 80% 29.95 in 7.0 mi South 8.1 mph - N/A Rain Rain
3:35 AM 62.1 °F 56.3 °F 81% 29.96 in 7.0 mi South 6.9 mph - N/A Rain Heavy Rain
3:55 AM 61.7 °F 55.9 °F 81% 29.96 in 7.0 mi South 5.8 mph - N/A Rain Rain
4:15 AM 61.0 °F 55.6 °F 82% 29.96 in 7.0 mi South 5.8 mph - N/A Rain Heavy Rain
4:35 AM 60.1 °F 55.2 °F 84% 29.96 in 7.0 mi South 5.8 mph - N/A Rain Rain
4:55 AM 60.3 °F 55.4 °F 84% 29.96 in 7.0 mi South 5.8 mph - N/A Rain Heavy Rain
5:15 AM 60.1 °F 55.4 °F 85% 29.97 in 7.0 mi SSE 4.6 mph - N/A Rain Rain
5:35 AM 60.8 °F 55.4 °F 82% 29.97 in 5.0 mi South 5.8 mph - N/A Rain Rain
5:55 AM 60.4 °F 55.0 °F 82% 29.97 in 7.0 mi South 8.1 mph - N/A Rain Heavy Rain
6:15 AM 60.4 °F 54.9 °F 82% 29.98 in 7.0 mi South 5.8 mph - N/A Rain Rain
6:35 AM 59.9 °F 54.7 °F 83% 29.98 in 7.0 mi South 4.6 mph - N/A Rain Heavy Rain
6:55 AM 59.4 °F 54.7 °F 84% 29.98 in 7.0 mi South 6.9 mph - N/A Rain Rain
7:15 AM 59.5 °F 54.5 °F 83% 29.98 in 7.0 mi South 6.9 mph - N/A Rain Heavy Rain
7:35 AM 60.8 °F 55.4 °F 82% 29.98 in 7.0 mi South 8.1 mph - N/A Rain Rain
7:55 AM 60.6 °F 54.9 °F 81% 29.99 in 7.0 mi South 8.1 mph - N/A Rain Heavy Rain
8:15 AM 61.5 °F 55.2 °F 80% 29.99 in 7.0 mi South 5.8 mph - N/A Rain Rain
8:35 AM 62.6 °F 55.0 °F 76% 30.00 in 7.0 mi South 8.1 mph - N/A Rain Rain
8:55 AM 63.9 °F 55.4 °F 74% 30.00 in 7.0 mi South 11.5 mph - N/A Rain Rain
9:15 AM 64.0 °F 55.6 °F 74% 30.00 in 7.0 mi South 11.5 mph - N/A Rain Rain
9:35 AM 65.8 °F 56.1 °F 71% 30.00 in 7.0 mi South 9.2 mph - N/A Rain Rain
9:55 AM 66.0 °F 56.8 °F 72% 29.99 in 7.0 mi South 11.5 mph 16.1 mph N/A Rain Rain
10:15 AM 66.2 °F 56.7 °F 71% 29.98 in 7.0 mi South 12.7 mph 18.4 mph N/A Rain Rain
10:35 AM 66.7 °F 57.7 °F 73% 29.99 in 7.0 mi South 6.9 mph - N/A Rain Heavy Rain
10:55 AM 69.3 °F 58.6 °F 69% 29.98 in 7.0 mi South 11.5 mph - N/A Rain Rain
11:15 AM 69.8 °F 59.0 °F 68% 29.98 in 7.0 mi SSW 12.7 mph - N/A Rain Rain
11:35 AM 70.2 °F 59.2 °F 68% 29.98 in 7.0 mi SSW 10.4 mph - N/A Rain Rain
11:55 AM 70.9 °F 59.9 °F 68% 29.97 in 7.0 mi South 11.5 mph - N/A Rain Rain
12:15 PM 73.2 °F 60.3 °F 64% 29.96 in 7.0 mi SSW 12.7 mph 16.1 mph N/A Rain Rain
12:35 PM 72.7 °F 60.6 °F 66% 29.95 in 7.0 mi SSW 10.4 mph - N/A Rain Heavy Rain
12:55 PM 74.1 °F 60.6 °F 63% 29.95 in 7.0 mi South 10.4 mph - N/A Rain Rain
1:15 PM 73.9 °F 61.0 °F 64% 29.95 in 7.0 mi SSW 10.4 mph - N/A Rain Heavy Rain
1:35 PM 74.1 °F 60.8 °F 63% 29.94 in 7.0 mi South 10.4 mph - N/A Rain Rain
1:55 PM 75.2 °F 60.8 °F 61% 29.93 in 7.0 mi South 9.2 mph - N/A Rain Rain
2:15 PM 75.2 °F 61.0 °F 61% 29.93 in 7.0 mi SSW 9.2 mph - N/A Rain Rain
2:35 PM 75.7 °F 61.3 °F 61% 29.93 in 7.0 mi South 12.7 mph - N/A Rain Rain
2:55 PM 77.0 °F 62.1 °F 60% 29.92 in 7.0 mi South 13.8 mph - N/A Rain Heavy Rain
3:15 PM 77.0 °F 61.9 °F 59% 29.91 in 7.0 mi South 13.8 mph 17.3 mph N/A Rain Rain
3:35 PM 77.0 °F 61.7 °F 59% 29.91 in 5.0 mi South 16.1 mph - N/A Rain Rain
4:15 PM 75.9 °F 62.2 °F 62% 29.91 in 7.0 mi South 12.7 mph 17.3 mph N/A Rain Rain
4:35 PM 75.0 °F 62.1 °F 64% 29.91 in 7.0 mi South 11.5 mph - N/A Rain Heavy Rain
4:55 PM 74.8 °F 61.9 °F 64% 29.91 in 7.0 mi South 15.0 mph - N/A Rain Heavy Rain
5:15 PM 73.6 °F 61.9 °F 67% 29.92 in 7.0 mi South 15.0 mph - N/A Rain Rain
5:35 PM 73.0 °F 61.9 °F 68% 29.92 in 7.0 mi South 12.7 mph - N/A Rain Rain
5:55 PM 72.1 °F 61.7 °F 70% 29.92 in 7.0 mi South 9.2 mph - N/A Rain Heavy Rain
6:15 PM 70.7 °F 61.7 °F 73% 29.92 in 7.0 mi South 8.1 mph - N/A Rain Rain
6:35 PM 69.8 °F 61.3 °F 74% 29.92 in 7.0 mi South 9.2 mph - N/A Rain Rain
6:55 PM 69.1 °F 61.2 °F 76% 29.92 in 7.0 mi South 9.2 mph - N/A Rain Heavy Rain
7:15 PM 69.3 °F 60.8 °F 74% 29.93 in 7.0 mi South 10.4 mph - N/A Rain Rain
7:35 PM 68.7 °F 60.4 °F 75% 29.93 in 7.0 mi South 9.2 mph - N/A Rain Heavy Rain
7:55 PM 68.4 °F 60.3 °F 75% 29.93 in 7.0 mi South 9.2 mph - N/A Rain Rain
8:15 PM 68.0 °F 59.7 °F 75% 29.93 in 7.0 mi South 10.4 mph - N/A Rain Rain
8:35 PM 68.0 °F 59.0 °F 73% 29.92 in 7.0 mi South 11.5 mph - N/A Rain Rain
8:55 PM 68.4 °F 58.5 °F 71% 29.93 in 7.0 mi South 10.4 mph - N/A Rain Rain
9:15 PM 67.8 °F 58.3 °F 71% 29.93 in 7.0 mi South 10.4 mph - N/A Rain Heavy Rain
9:35 PM 67.3 °F 58.1 °F 72% 29.93 in 7.0 mi South 11.5 mph - N/A Rain Rain
9:55 PM 67.1 °F 57.7 °F 72% 29.93 in 7.0 mi South 12.7 mph - N/A Rain Rain
10:15 PM 66.7 °F 57.6 °F 72% 29.92 in 7.0 mi South 12.7 mph - N/A Rain Rain
10:35 PM 66.4 °F 57.6 °F 73% 29.92 in 7.0 mi South 12.7 mph - N/A Rain Heavy Rain
10:55 PM 66.7 °F 57.6 °F 72% 29.92 in 7.0 mi South 11.5 mph - N/A Rain Heavy Rain
11:15 PM 66.2 °F 57.4 °F 73% 29.92 in 7.0 mi South 10.4 mph - N/A Rain Rain
11:35 PM 66.2 °F 57.2 °F 73% 29.91 in 7.0 mi South 10.4 mph - N/A Rain Heavy Rain
11:55 PM 66.4 °F 57.2 °F 72% 29.91 in 7.0 mi South 11.5 mph 17.3 mph N/A Rain Rain